CSG-2

Last updated on Sun Sep 20 2026 00:02:45 GMT+0000 (Coordinated Universal Time)

1 51444U 22008A 26262.53236778 .00000329 00000+0 47890-4 0 9994 2 51444 97.8916 84.7864 0001403 80.7321 279.4051 14.82154365250561
UTC large
Height (km)
Speed (km/s)
/
Latitude / Longitude
Inclination (degrees)
Orbital Period (minutes)
Azimuth
Elevation
Range (km)
Doppler Factor

Next 0 passes for location: London (51.5072 / 0.1276)

No passes found over London.
CSG-2